Wellsville, NY

11:22 PM EST on November 22, 2017 (GMT -0500)
Wellsville Municipal-Tarantine

Weather History for KELZ - August, 2014

Change the Weather History Date:

Friday, August 8, 2014

  Actual Average (KDSV) Record (KDSV)
Temperature  
Mean Temperature 60 °F -  
Max Temperature 75 °F 81 °F 99 °F (2001)
Min Temperature 48 °F 58 °F 47 °F (1975)
Degree Days  
Heating Degree Days 4    
Growing Degree Days 10 (Base 50)    
Moisture  
Dew Point 50 °F    
Average Humidity 79    
Maximum Humidity 97    
Minimum Humidity 43    
Precipitation  
Precipitation 0.00 in - - ()
Sea Level Pressure  
Sea Level Pressure 30.18 in    
Wind  
Wind Speed 1 mph (NE)    
Max Wind Speed 7 mph    
Max Gust Speed -    
Visibility 6 miles    
Events Fog    
Averages and records for this station are not official NWS values.
T = Trace of Precipitation, MM = Missing Value Source: NWS Daily Summary

Daily Weather History Graph

Daily Weather History Graph

Search for Another Location

Airport or City:

Trip Planner

Search our weather history database for the weather conditions in past years. The results will help you decide how hot, cold, wet, or windy it might be!

Date:

Astronomy

Aug. 08, 2014 Rise Set
Actual Time 6:12 AM EDT 8:22 PM EDT
Civil Twilight 5:41 AM EDT 8:52 PM EDT
Nautical Twilight 5:03 AM EDT 9:30 PM EDT
Astronomical Twilight 4:21 AM EDT 10:12 PM EDT
Moon 6:32 PM EDT (8/8) 3:41 AM EDT (8/8)
Length of Visible Light 15h 11m
Length of Day
14h 09m
Waxing Gibbous, 93% of the Moon is Illuminated
Aug 8
Waxing Gibbous
Aug 10
Full
Aug 17
Last Quarter
Aug 25
New
Sep 2
First Quarter

Hourly Weather History & Observations

Time (EDT) Temp. Dew Point Humidity Pressure Visibility Wind Dir Wind Speed Gust Speed Precip Events Conditions
12:56 AM 54.0 °F 50.0 °F 86% 30.15 in 10.0 mi Calm Calm - N/A   Clear
1:56 AM 52.0 °F 48.9 °F 89% 30.14 in 10.0 mi Calm Calm - N/A   Clear
2:56 AM 54.0 °F 50.0 °F 86% 30.14 in 10.0 mi Calm Calm - N/A   Clear
3:48 AM 52.0 °F 48.9 °F 89% 30.16 in 1.8 mi Calm Calm - N/A   Clear
3:56 AM 52.0 °F 48.9 °F 89% 30.15 in 0.8 mi Calm Calm - N/A   Clear
4:04 AM 52.0 °F 48.9 °F 89% 30.16 in 1.2 mi Calm Calm - N/A   Clear
4:14 AM 52.0 °F 48.9 °F 89% 30.16 in 3.0 mi Calm Calm - N/A   Clear
4:43 AM 52.0 °F 48.9 °F 89% 30.17 in 1.8 mi Calm Calm - N/A   Clear
4:56 AM 51.1 °F 48.0 °F 89% 30.17 in 4.0 mi Calm Calm - N/A   Clear
5:15 AM 50.0 °F 48.0 °F 93% 30.18 in 1.8 mi Calm Calm - N/A   Partly Cloudy
5:18 AM 48.9 °F 46.9 °F 93% 30.18 in 0.8 mi Calm Calm - N/A   Mist
5:56 AM 51.1 °F 48.9 °F 92% 30.19 in 4.0 mi Calm Calm - N/A   Partly Cloudy
6:23 AM 50.0 °F 48.0 °F 93% 30.20 in 2.0 mi Calm Calm - N/A   Clear
6:33 AM 50.0 °F 48.0 °F 93% 30.21 in 9.0 mi Calm Calm - N/A   Clear
6:40 AM 48.9 °F 46.9 °F 93% 30.21 in 1.2 mi Calm Calm - N/A   Partly Cloudy
6:52 AM 48.2 °F 46.4 °F 93% 30.21 in 0.2 mi Calm Calm - N/A Fog Fog
6:56 AM 48.0 °F 46.9 °F 96% 30.21 in 0.5 mi Calm Calm - N/A Fog Fog
7:05 AM 48.0 °F 46.9 °F 96% 30.21 in 0.2 mi Calm Calm - N/A Fog Fog
7:09 AM 48.9 °F 48.0 °F 97% 30.21 in 1.0 mi Calm Calm - N/A   Mist
7:12 AM 48.9 °F 46.9 °F 93% 30.21 in 2.0 mi Calm Calm - N/A   Partly Cloudy
7:21 AM 48.9 °F 46.9 °F 93% 30.21 in 6.0 mi Calm Calm - N/A   Clear
7:56 AM 52.0 °F 50.0 °F 93% 30.22 in 10.0 mi Calm Calm - N/A   Clear
8:56 AM 57.0 °F 53.1 °F 87% 30.22 in 10.0 mi Calm Calm - N/A   Clear
9:56 AM 64.0 °F 53.1 °F 67% 30.21 in 10.0 mi ESE 3.5 mph - N/A   Clear
10:56 AM 66.9 °F 51.1 °F 57% 30.21 in 10.0 mi East 3.5 mph - N/A   Clear
11:56 AM 70.0 °F 51.1 °F 51% 30.20 in 10.0 mi Calm Calm - N/A   Clear
12:56 PM 71.1 °F 51.1 °F 49% 30.19 in 10.0 mi NNW 5.8 mph - N/A   Partly Cloudy
1:56 PM 72.0 °F 50.0 °F 46% 30.18 in 10.0 mi North 4.6 mph - N/A   Partly Cloudy
2:56 PM 73.9 °F 50.0 °F 43% 30.16 in 10.0 mi Variable 4.6 mph - N/A   Partly Cloudy
3:56 PM 73.0 °F 50.0 °F 44% 30.16 in 10.0 mi East 3.5 mph - N/A   Mostly Cloudy
4:56 PM 71.1 °F 50.0 °F 47% 30.17 in 10.0 mi NNE 6.9 mph - N/A   Partly Cloudy
5:56 PM 72.0 °F 50.0 °F 46% 30.16 in 10.0 mi North 4.6 mph - N/A   Clear
6:56 PM 70.0 °F 52.0 °F 53% 30.17 in 10.0 mi North 3.5 mph - N/A   Clear
7:56 PM 66.0 °F 53.1 °F 63% 30.17 in 10.0 mi ENE 5.8 mph - N/A   Clear
8:56 PM 64.0 °F 55.0 °F 73% 30.17 in 10.0 mi ENE 3.5 mph - N/A   Clear
9:56 PM 61.0 °F 55.0 °F 81% 30.18 in 10.0 mi East 3.5 mph - N/A   Clear
10:56 PM 59.0 °F 55.0 °F 87% 30.18 in 10.0 mi ENE 4.6 mph - N/A   Clear
11:56 PM 57.0 °F 55.0 °F 93% 30.18 in 10.0 mi Calm Calm - N/A   Clear